Date String (YYYY-MM-DD hh:mm:ss) UTC,Instrument flags,Ambient pressure (hPa),Sample flow (lpm),Bypass flow (lpm),Sample temperature (°C),Ambient temperature (°C),ASC tube jacket temperature (°C),LED temperature (°C),Box temperature (°C),Sample RH (%),Span deviation,Mass concentration (μg/m³),Mass concentration (μg/m³),Mass concentration (μg/m³)
DateTimeUTC,F1_M11,P_M11,Q1_M11,Q2_M11,T1_M11,T2_M11,T3_M11,T4_M11,T5_M11,U1_M11,ZSPAN_M11,X0_M11,X2_M11,X1_M11
2023-01-12 22:00:00,,0832.4,5.00,0.00,26.8,25.6,00.0,35.6,28.6,13.1,-000.6,0020.05,0013.31,0012.66
2023-01-12 22:01:00,,0832.4,4.99,0.00,26.9,25.6,00.0,35.6,28.7,13.2,-000.6,0019.88,0013.23,0012.66
2023-01-12 22:02:00,,0832.4,5.00,0.00,26.9,25.7,00.0,35.6,28.6,13.2,-000.5,0019.88,0013.22,0012.65
2023-01-12 22:03:00,,0832.3,5.00,0.00,26.9,25.7,00.0,35.6,28.7,13.0,-000.2,0019.97,0013.24,0012.66
2023-01-12 22:04:00,,0832.4,5.00,0.00,26.9,25.7,00.0,35.6,28.7,12.8,-000.0,0019.93,0013.23,0012.67
2023-01-12 22:05:00,,0832.3,5.01,0.00,26.9,25.7,00.0,35.6,28.7,12.8,0000.1,0019.89,0013.17,0012.64
2023-01-12 22:06:00,,0832.3,5.00,0.00,26.9,25.7,00.0,35.6,28.7,12.8,0000.1,0020.13,0013.16,0012.65
2023-01-12 22:07:00,,0832.3,5.01,0.00,26.9,25.7,00.0,35.6,28.7,13.1,0000.1,0020.24,0013.19,0012.69
2023-01-12 22:08:00,,0832.3,4.99,0.00,26.9,25.7,00.0,35.6,28.7,13.1,0000.2,0020.04,0013.22,0012.70
2023-01-12 22:09:00,,0832.4,5.00,0.00,26.9,25.7,00.0,35.7,28.7,13.0,0000.3,0020.56,0013.26,0012.73
2023-01-12 22:10:00,,0832.3,5.00,0.00,26.9,25.7,00.0,35.7,28.8,13.1,0000.3,0020.62,0013.30,0012.77
2023-01-12 22:11:00,,0832.3,5.00,0.00,27.0,25.7,00.0,35.7,28.8,13.1,0000.2,0021.17,0013.36,0012.80
2023-01-12 22:12:00,,0832.3,4.99,0.00,27.0,25.7,00.0,35.7,28.7,13.1,0000.3,0021.42,0013.46,0012.85
2023-01-12 22:13:00,,0832.3,5.00,0.00,27.0,25.8,00.0,35.7,28.8,13.2,0000.3,0021.61,0013.53,0012.87
2023-01-12 22:14:00,,0832.3,5.00,0.00,27.0,25.8,00.0,35.7,28.8,13.2,0000.1,0021.59,0013.52,0012.86
2023-01-12 22:15:00,,0832.3,5.00,0.00,27.0,25.8,00.0,35.7,28.8,12.9,0000.0,0022.04,0013.54,0012.85
2023-01-12 22:16:00,,0832.3,4.99,0.00,27.0,25.8,00.0,35.7,28.8,13.2,0000.2,0023.29,0013.55,0012.85
2023-01-12 22:17:00,,0832.3,5.01,0.00,27.0,25.8,00.0,35.7,28.8,13.2,0000.2,0023.15,0013.54,0012.83
2023-01-12 22:18:00,,0832.3,5.01,0.00,27.0,25.8,00.0,35.7,28.8,13.0,0000.2,0023.10,0013.52,0012.77
2023-01-12 22:19:00,,0832.3,5.01,0.00,27.0,25.8,00.0,35.8,28.8,12.8,0000.1,0022.92,0013.47,0012.70
2023-01-12 22:20:00,,0832.3,5.00,0.00,27.0,25.8,00.0,35.8,28.8,12.9,0000.1,0022.33,0013.42,0012.64
2023-01-12 22:21:00,,0832.3,5.00,0.00,27.1,25.8,00.0,35.8,28.9,13.2,0000.1,0022.50,0013.36,0012.58
2023-01-12 22:22:00,,0832.3,5.01,0.00,27.1,25.9,00.0,35.8,28.9,13.2,-000.0,0021.95,0013.29,0012.53
2023-01-12 22:23:00,,0832.3,4.99,0.00,27.1,25.9,00.0,35.8,28.9,13.0,-000.1,0021.72,0013.21,0012.46
2023-01-12 22:24:00,,0832.3,4.99,0.00,27.1,25.9,00.0,35.8,28.9,13.1,-000.1,0021.55,0013.16,0012.42
2023-01-12 22:25:00,,0832.4,4.99,0.00,27.1,25.9,00.0,35.8,28.9,13.1,0000.0,0021.47,0013.09,0012.37
2023-01-12 22:26:00,,0832.4,5.00,0.00,27.1,25.9,00.0,35.8,28.9,13.0,0000.0,0020.80,0012.98,0012.33
2023-01-12 22:27:00,,0832.5,5.00,0.00,27.1,25.9,00.0,35.8,28.9,13.0,-000.2,0019.51,0012.98,0012.32
2023-01-12 22:28:00,,0832.5,5.00,0.00,27.1,25.9,00.0,35.9,28.9,12.8,-000.3,0019.61,0012.97,0012.30
2023-01-12 22:29:00,,0832.5,5.00,0.00,27.1,25.9,00.0,35.9,28.9,12.9,-000.1,0019.46,0012.92,0012.29
2023-01-12 22:30:00,,0832.6,5.00,0.00,27.1,25.9,00.0,35.9,28.9,12.9,-000.2,0019.39,0012.94,0012.32
2023-01-12 22:31:00,,0832.6,5.00,0.00,27.2,25.9,00.0,35.9,28.9,12.9,-000.3,0019.47,0013.01,0012.38
2023-01-12 22:32:00,,0832.6,5.00,0.00,27.2,25.9,00.0,35.9,29.0,12.7,-000.3,0019.17,0012.95,0012.37
2023-01-12 22:33:00,,0832.6,5.01,0.00,27.2,25.9,00.0,35.9,29.0,12.7,-000.2,0019.28,0012.97,0012.39
2023-01-12 22:34:00,,0832.6,4.99,0.00,27.2,25.9,00.0,35.9,29.0,12.7,-000.2,0019.31,0012.99,0012.41
2023-01-12 22:35:00,,0832.6,5.00,0.00,27.2,25.9,00.0,35.9,29.0,12.8,-000.2,0019.37,0013.03,0012.46
2023-01-12 22:36:00,,0832.7,5.00,0.00,27.2,25.9,00.0,35.9,29.0,12.9,-000.3,0019.37,0013.08,0012.51
2023-01-12 22:37:00,,0832.7,4.99,0.00,27.2,25.9,00.0,35.9,29.0,12.7,-000.4,0019.51,0013.17,0012.57
2023-01-12 22:38:00,,0832.7,5.00,0.00,27.2,26.0,00.0,35.9,29.0,12.7,-000.4,0019.67,0013.22,0012.62
2023-01-12 22:39:00,,0832.7,4.99,0.00,27.2,26.0,00.0,36.0,29.0,12.7,-000.4,0019.62,0013.29,0012.67
2023-01-12 22:40:00,,0832.7,5.01,0.00,27.2,26.0,00.0,36.0,29.0,12.7,-000.5,0019.72,0013.35,0012.73
2023-01-12 22:41:00,,0832.6,5.01,0.00,27.2,26.0,00.0,36.0,29.0,12.6,-000.5,0019.87,0013.39,0012.75
2023-01-12 22:42:00,,0832.6,5.01,0.00,27.3,26.0,00.0,36.0,29.0,12.5,-000.4,0019.88,0013.40,0012.76
2023-01-12 22:43:00,,0832.6,5.00,0.00,27.3,26.0,00.0,36.0,29.1,12.5,-000.4,0019.86,0013.48,0012.81
2023-01-12 22:44:00,,0832.6,5.00,0.00,27.3,26.0,00.0,36.0,29.1,12.6,-000.4,0019.76,0013.46,0012.79
2023-01-12 22:45:00,,0832.6,5.00,0.00,27.3,26.0,00.0,36.0,29.1,12.5,-000.4,0019.73,0013.43,0012.78
2023-01-12 22:46:00,,0832.6,5.00,0.00,27.3,26.0,00.0,36.0,29.1,12.6,-000.5,0019.61,0013.37,0012.76
2023-01-12 22:47:00,,0832.6,5.00,0.00,27.3,26.0,00.0,36.0,29.1,12.5,-000.4,0019.80,0013.42,0012.79
2023-01-12 22:48:00,,0832.6,5.00,0.00,27.3,26.0,00.0,36.0,29.1,12.4,-000.2,0020.32,0013.47,0012.85
2023-01-12 22:49:00,,0832.6,5.00,0.00,27.3,26.0,00.0,36.0,29.1,12.3,-000.2,0020.82,0013.50,0012.89
2023-01-12 22:50:00,,0832.6,5.00,0.00,27.3,26.0,00.0,36.0,29.1,12.4,-000.1,0020.89,0013.55,0012.94
2023-01-12 22:51:00,,0832.7,5.00,0.00,27.3,26.0,00.0,36.0,29.1,12.2,-000.0,0021.47,0013.59,0013.01
2023-01-12 22:52:00,,0832.6,5.00,0.00,27.3,26.0,00.0,36.1,29.1,12.1,0000.0,0021.56,0013.62,0013.07
2023-01-12 22:53:00,,0832.7,4.99,0.00,27.3,26.0,00.0,36.1,29.1,12.1,0000.1,0022.36,0013.62,0013.12
2023-01-12 22:54:00,,0832.7,5.00,0.00,27.3,26.0,00.0,36.1,29.1,12.2,0000.0,0022.87,0013.65,0013.17
2023-01-12 22:55:00,,0832.7,5.00,0.00,27.3,26.0,00.0,36.1,29.1,12.1,0000.1,0023.28,0013.74,0013.23
2023-01-12 22:56:00,,0832.7,5.00,0.00,27.3,26.0,00.0,36.1,29.1,12.1,0000.3,0023.67,0013.82,0013.30
2023-01-12 22:57:00,,0832.7,5.01,0.00,27.3,26.0,00.0,36.1,29.1,12.2,0000.4,0023.79,0013.88,0013.34
2023-01-12 22:58:00,,0832.7,5.00,0.00,27.4,26.1,00.0,36.1,29.2,12.1,0000.4,0023.83,0013.89,0013.35
2023-01-12 22:59:00,,0832.7,5.01,0.00,27.4,26.1,00.0,36.1,29.1,12.0,0000.3,0023.61,0013.87,0013.31
